Year,Month,Day,Hour,Minute,Value (Times are PST for windspeed in km/hr)
2012,09,09,00,00,8.70
2012,09,09,00,01,5.70
2012,09,09,00,02,6.80
2012,09,09,00,03,5.60
2012,09,09,00,04,5.90
2012,09,09,00,05,8.10
2012,09,09,00,06,6.80
2012,09,09,00,07,7.30
2012,09,09,00,08,6.60
2012,09,09,00,09,7.60
2012,09,09,00,10,8.00
2012,09,09,00,11,8.90
2012,09,09,00,12,7.60
2012,09,09,00,13,7.60
2012,09,09,00,14,6.70
2012,09,09,00,15,6.10
2012,09,09,00,16,5.40
2012,09,09,00,17,7.30
2012,09,09,00,18,7.50
2012,09,09,00,19,7.40
2012,09,09,00,20,6.40
2012,09,09,00,21,7.20
2012,09,09,00,22,4.60
2012,09,09,00,23,5.00
2012,09,09,00,24,4.80
2012,09,09,00,25,2.50
2012,09,09,00,26,3.40
2012,09,09,00,27,3.70
2012,09,09,00,28,6.90
2012,09,09,00,29,6.80
2012,09,09,00,30,8.40
2012,09,09,00,31,8.60
2012,09,09,00,32,8.10
2012,09,09,00,33,7.50
2012,09,09,00,34,6.50
2012,09,09,00,35,7.80
2012,09,09,00,36,6.40
2012,09,09,00,37,5.80
2012,09,09,00,38,6.90
2012,09,09,00,39,7.60
2012,09,09,00,40,9.40
2012,09,09,00,41,6.90
2012,09,09,00,42,6.00
2012,09,09,00,43,7.20
2012,09,09,00,44,7.60
2012,09,09,00,45,6.70
2012,09,09,00,46,7.10
2012,09,09,00,47,7.00
2012,09,09,00,48,9.30
2012,09,09,00,49,7.70
2012,09,09,00,50,7.90
2012,09,09,00,51,5.50
2012,09,09,00,52,5.00
2012,09,09,00,53,6.10
2012,09,09,00,54,7.80
2012,09,09,00,55,6.40
2012,09,09,00,56,4.80
2012,09,09,00,57,8.70
2012,09,09,00,58,7.90
2012,09,09,00,59,6.90
2012,09,09,01,00,8.50
2012,09,09,01,01,9.20
2012,09,09,01,02,8.60
2012,09,09,01,03,7.40
2012,09,09,01,04,6.80
2012,09,09,01,05,8.70
2012,09,09,01,06,6.70
2012,09,09,01,07,6.10
2012,09,09,01,08,6.20
2012,09,09,01,09,5.40
2012,09,09,01,10,5.00
2012,09,09,01,11,3.70
2012,09,09,01,12,7.60
2012,09,09,01,13,7.10
2012,09,09,01,14,5.20
2012,09,09,01,15,4.10
2012,09,09,01,16,6.10
2012,09,09,01,17,6.40
2012,09,09,01,18,6.20
2012,09,09,01,19,8.50
2012,09,09,01,20,8.60
2012,09,09,01,21,8.90
2012,09,09,01,22,6.90
2012,09,09,01,23,5.30
2012,09,09,01,24,6.90
2012,09,09,01,25,6.00
2012,09,09,01,26,8.80
2012,09,09,01,27,9.40
2012,09,09,01,28,9.80
2012,09,09,01,29,7.20
2012,09,09,01,30,6.50
2012,09,09,01,31,6.90
2012,09,09,01,32,7.20
2012,09,09,01,33,7.80
2012,09,09,01,34,7.40
2012,09,09,01,35,7.70
2012,09,09,01,36,7.40
2012,09,09,01,37,8.20
2012,09,09,01,38,7.20
2012,09,09,01,39,6.40
2012,09,09,01,40,6.30
2012,09,09,01,41,4.70
2012,09,09,01,42,5.80
2012,09,09,01,43,6.50
2012,09,09,01,44,7.80
2012,09,09,01,45,5.30
2012,09,09,01,46,9.80
2012,09,09,01,47,9.20
2012,09,09,01,48,8.10
2012,09,09,01,49,9.60
2012,09,09,01,50,8.20
2012,09,09,01,51,8.00
2012,09,09,01,52,7.40
2012,09,09,01,53,7.80
2012,09,09,01,54,8.80
2012,09,09,01,55,7.30
2012,09,09,01,56,6.30
2012,09,09,01,57,4.70
2012,09,09,01,58,5.90
2012,09,09,01,59,10.00
2012,09,09,02,00,9.70
2012,09,09,02,01,8.30
2012,09,09,02,02,6.10
2012,09,09,02,03,8.80
2012,09,09,02,04,8.00
2012,09,09,02,05,8.80
2012,09,09,02,06,6.80
2012,09,09,02,07,7.00
2012,09,09,02,08,5.90
2012,09,09,02,09,7.10
2012,09,09,02,10,7.60
2012,09,09,02,11,6.40
2012,09,09,02,12,5.90
2012,09,09,02,13,7.40
2012,09,09,02,14,5.80
2012,09,09,02,15,6.50
2012,09,09,02,16,5.50
2012,09,09,02,17,7.90
2012,09,09,02,18,5.50
2012,09,09,02,19,4.70
2012,09,09,02,20,5.50
2012,09,09,02,21,7.30
2012,09,09,02,22,8.50
2012,09,09,02,23,7.20
2012,09,09,02,24,7.60
2012,09,09,02,25,7.30
2012,09,09,02,26,7.70
2012,09,09,02,27,7.10
2012,09,09,02,28,8.40
2012,09,09,02,29,8.10
2012,09,09,02,30,8.90
2012,09,09,02,31,6.90
2012,09,09,02,32,8.00
2012,09,09,02,33,7.60
2012,09,09,02,34,8.50
2012,09,09,02,35,7.70
2012,09,09,02,36,8.20
2012,09,09,02,37,9.30
2012,09,09,02,38,7.80
2012,09,09,02,39,8.00
2012,09,09,02,40,7.60
2012,09,09,02,41,7.40
2012,09,09,02,42,5.40
2012,09,09,02,43,7.80
2012,09,09,02,44,5.60
2012,09,09,02,45,8.30
2012,09,09,02,46,7.50
2012,09,09,02,47,7.50
2012,09,09,02,48,7.50
2012,09,09,02,49,6.80
2012,09,09,02,50,6.40
2012,09,09,02,51,5.50
2012,09,09,02,52,7.60
2012,09,09,02,53,6.00
2012,09,09,02,54,7.10
2012,09,09,02,55,5.20
2012,09,09,02,56,5.40
2012,09,09,02,57,6.50
2012,09,09,02,58,7.10
2012,09,09,02,59,7.80
2012,09,09,03,00,7.50
2012,09,09,03,01,6.60
2012,09,09,03,02,5.40
2012,09,09,03,03,6.90
2012,09,09,03,04,5.20
2012,09,09,03,05,6.60
2012,09,09,03,06,8.70
2012,09,09,03,07,5.10
2012,09,09,03,08,5.00
2012,09,09,03,09,5.70
2012,09,09,03,10,4.20
2012,09,09,03,11,4.30
2012,09,09,03,12,5.00
2012,09,09,03,13,5.70
2012,09,09,03,14,4.40
2012,09,09,03,15,5.20
2012,09,09,03,16,6.50
2012,09,09,03,17,6.40
2012,09,09,03,18,5.30
2012,09,09,03,19,5.20
2012,09,09,03,20,3.90
2012,09,09,03,21,6.20
2012,09,09,03,22,4.20
2012,09,09,03,23,5.30
2012,09,09,03,24,8.00
2012,09,09,03,25,8.90
2012,09,09,03,26,6.30
2012,09,09,03,27,6.90
2012,09,09,03,28,7.50
2012,09,09,03,29,7.80
2012,09,09,03,30,5.50
2012,09,09,03,31,6.40
2012,09,09,03,32,4.90
2012,09,09,03,33,5.20
2012,09,09,03,34,5.30
2012,09,09,03,35,4.50
2012,09,09,03,36,6.90
2012,09,09,03,37,6.80
2012,09,09,03,38,7.60
2012,09,09,03,39,6.90
2012,09,09,03,40,5.60
2012,09,09,03,41,5.40
2012,09,09,03,42,6.50
2012,09,09,03,43,7.80
2012,09,09,03,44,4.50
2012,09,09,03,45,5.30
2012,09,09,03,46,6.70
2012,09,09,03,47,8.00
2012,09,09,03,48,8.10
2012,09,09,03,49,7.60
2012,09,09,03,50,5.10
2012,09,09,03,51,6.30
2012,09,09,03,52,6.60
2012,09,09,03,53,7.10
2012,09,09,03,54,8.30
2012,09,09,03,55,7.20
2012,09,09,03,56,5.40
2012,09,09,03,57,5.80
2012,09,09,03,58,6.30
2012,09,09,03,59,7.40
2012,09,09,04,00,4.90
2012,09,09,04,01,6.90
2012,09,09,04,02,6.00
2012,09,09,04,03,5.90
2012,09,09,04,04,6.00
2012,09,09,04,05,4.60
2012,09,09,04,06,3.80
2012,09,09,04,07,4.50
2012,09,09,04,08,7.80
2012,09,09,04,09,7.40
2012,09,09,04,10,6.10
2012,09,09,04,11,4.20
2012,09,09,04,12,7.70
2012,09,09,04,13,6.70
2012,09,09,04,14,6.90
2012,09,09,04,15,7.50
2012,09,09,04,16,6.90
2012,09,09,04,17,7.40
2012,09,09,04,18,6.80
2012,09,09,04,19,5.00
2012,09,09,04,20,5.10
2012,09,09,04,21,5.40
2012,09,09,04,22,6.10
2012,09,09,04,23,8.60
2012,09,09,04,24,7.20
2012,09,09,04,25,7.50
2012,09,09,04,26,4.80
2012,09,09,04,27,6.60
2012,09,09,04,28,5.60
2012,09,09,04,29,7.10
2012,09,09,04,30,6.40
2012,09,09,04,31,8.90
2012,09,09,04,32,9.40
2012,09,09,04,33,7.40
2012,09,09,04,34,8.10
2012,09,09,04,35,7.70
2012,09,09,04,36,6.10
2012,09,09,04,37,8.70
2012,09,09,04,38,4.60
2012,09,09,04,39,6.00
2012,09,09,04,40,6.90
2012,09,09,04,41,5.50
2012,09,09,04,42,4.30
2012,09,09,04,43,5.60
2012,09,09,04,44,6.00
2012,09,09,04,45,5.40
2012,09,09,04,46,8.50
2012,09,09,04,47,6.70
2012,09,09,04,48,4.80
2012,09,09,04,49,6.50
2012,09,09,04,50,8.80
2012,09,09,04,51,6.80
2012,09,09,04,52,7.40
2012,09,09,04,53,8.00
2012,09,09,04,54,6.00
2012,09,09,04,55,6.10
2012,09,09,04,56,7.70
2012,09,09,04,57,6.90
2012,09,09,04,58,5.10
2012,09,09,04,59,8.60
2012,09,09,05,00,7.60
2012,09,09,05,01,6.60
2012,09,09,05,02,7.00
2012,09,09,05,03,8.10
2012,09,09,05,04,7.20
2012,09,09,05,05,8.20
2012,09,09,05,06,5.60
2012,09,09,05,07,4.70
2012,09,09,05,08,5.60
2012,09,09,05,09,6.80
2012,09,09,05,10,5.60
2012,09,09,05,11,10.40
2012,09,09,05,12,7.20
2012,09,09,05,13,6.80
2012,09,09,05,14,6.70
2012,09,09,05,15,10.30
2012,09,09,05,16,9.20
2012,09,09,05,17,9.10
2012,09,09,05,18,6.40
2012,09,09,05,19,7.20
2012,09,09,05,20,7.20
2012,09,09,05,21,6.90
2012,09,09,05,22,7.30
2012,09,09,05,23,6.60
2012,09,09,05,24,6.70
2012,09,09,05,25,5.20
2012,09,09,05,26,8.00
2012,09,09,05,27,8.30
2012,09,09,05,28,5.90
2012,09,09,05,29,8.30
2012,09,09,05,30,9.10
2012,09,09,05,31,11.30
2012,09,09,05,32,6.20
2012,09,09,05,33,7.20
2012,09,09,05,34,8.50
2012,09,09,05,35,10.30
2012,09,09,05,36,9.90
2012,09,09,05,37,8.10
2012,09,09,05,38,5.80
2012,09,09,05,39,3.80
2012,09,09,05,40,5.20
2012,09,09,05,41,7.70
2012,09,09,05,42,7.40
2012,09,09,05,43,8.30
2012,09,09,05,44,7.30
2012,09,09,05,45,7.10
2012,09,09,05,46,9.00
2012,09,09,05,47,7.90
2012,09,09,05,48,11.20
2012,09,09,05,49,8.30
2012,09,09,05,50,11.50
2012,09,09,05,51,8.10
2012,09,09,05,52,9.10
2012,09,09,05,53,6.70
2012,09,09,05,54,7.30
2012,09,09,05,55,8.10
2012,09,09,05,56,10.00
2012,09,09,05,57,11.10
2012,09,09,05,58,7.50
2012,09,09,05,59,8.00
2012,09,09,06,00,10.30
2012,09,09,06,01,10.70
2012,09,09,06,02,9.80
2012,09,09,06,03,8.70
2012,09,09,06,04,11.00
2012,09,09,06,05,7.00
2012,09,09,06,06,10.50
2012,09,09,06,07,7.70
2012,09,09,06,08,7.80
2012,09,09,06,09,8.50
2012,09,09,06,10,11.50
2012,09,09,06,11,8.10
2012,09,09,06,12,8.10
2012,09,09,06,13,10.70
2012,09,09,06,14,11.10
2012,09,09,06,15,9.10
2012,09,09,06,16,12.90
2012,09,09,06,17,7.50
2012,09,09,06,18,7.40
2012,09,09,06,19,9.90
2012,09,09,06,20,10.00
2012,09,09,06,21,8.70
2012,09,09,06,22,9.50
2012,09,09,06,23,7.50
2012,09,09,06,24,6.10
2012,09,09,06,25,7.80
2012,09,09,06,26,8.60
2012,09,09,06,27,9.10
2012,09,09,06,28,6.00
2012,09,09,06,29,12.20
2012,09,09,06,30,9.70
2012,09,09,06,31,10.90
2012,09,09,06,32,8.50
2012,09,09,06,33,7.80
2012,09,09,06,34,10.20
2012,09,09,06,35,9.70
2012,09,09,06,36,8.10
2012,09,09,06,37,8.40
2012,09,09,06,38,10.70
2012,09,09,06,39,11.20
2012,09,09,06,40,11.50
2012,09,09,06,41,12.00
2012,09,09,06,42,7.80
2012,09,09,06,43,8.10
2012,09,09,06,44,7.80
2012,09,09,06,45,11.10
2012,09,09,06,46,9.60
2012,09,09,06,47,12.20
2012,09,09,06,48,10.90
2012,09,09,06,49,7.60
2012,09,09,06,50,10.30
2012,09,09,06,51,8.80
2012,09,09,06,52,8.60
2012,09,09,06,53,6.20
2012,09,09,06,54,9.20
2012,09,09,06,55,9.60
2012,09,09,06,56,10.30
2012,09,09,06,57,8.20
2012,09,09,06,58,7.20
2012,09,09,06,59,7.10
2012,09,09,07,00,9.90
2012,09,09,07,01,8.20
2012,09,09,07,02,10.20
2012,09,09,07,03,9.50
2012,09,09,07,04,9.20
2012,09,09,07,05,9.50
2012,09,09,07,06,8.20
2012,09,09,07,07,10.70
2012,09,09,07,08,8.60
2012,09,09,07,09,9.40
2012,09,09,07,10,7.40
2012,09,09,07,11,10.30
2012,09,09,07,12,7.80
2012,09,09,07,13,7.70
2012,09,09,07,14,11.40
2012,09,09,07,15,11.10
2012,09,09,07,16,10.20
2012,09,09,07,17,12.30
2012,09,09,07,18,10.80
2012,09,09,07,19,12.10
2012,09,09,07,20,10.70
2012,09,09,07,21,11.30
2012,09,09,07,22,12.20
2012,09,09,07,23,8.40
2012,09,09,07,24,11.70
2012,09,09,07,25,10.30
2012,09,09,07,26,9.40
2012,09,09,07,27,8.70
2012,09,09,07,28,9.40
2012,09,09,07,29,9.00
2012,09,09,07,30,8.10
2012,09,09,07,31,9.40
2012,09,09,07,32,9.60
2012,09,09,07,33,8.80
2012,09,09,07,34,11.70
2012,09,09,07,35,9.60
2012,09,09,07,36,10.80
2012,09,09,07,37,11.60
2012,09,09,07,38,7.70
2012,09,09,07,39,8.70
2012,09,09,07,40,11.10
2012,09,09,07,41,12.60
2012,09,09,07,42,12.50
2012,09,09,07,43,13.30
2012,09,09,07,44,10.30
2012,09,09,07,45,10.80
2012,09,09,07,46,11.50
2012,09,09,07,47,10.90
2012,09,09,07,48,9.20
2012,09,09,07,49,12.10
2012,09,09,07,50,9.70
2012,09,09,07,51,13.90
2012,09,09,07,52,11.00
2012,09,09,07,53,13.00
2012,09,09,07,54,12.50
2012,09,09,07,55,13.60
2012,09,09,07,56,9.40
2012,09,09,07,57,13.80
2012,09,09,07,58,9.40
2012,09,09,07,59,8.80
2012,09,09,08,00,10.10
2012,09,09,08,01,10.10
2012,09,09,08,02,10.70
2012,09,09,08,03,10.60
2012,09,09,08,04,11.60
2012,09,09,08,05,14.30
2012,09,09,08,06,11.80
2012,09,09,08,07,11.20
2012,09,09,08,08,14.90
2012,09,09,08,09,14.60
2012,09,09,08,10,13.80
2012,09,09,08,11,12.00
2012,09,09,08,12,10.40
2012,09,09,08,13,11.30
2012,09,09,08,14,13.00
2012,09,09,08,15,15.10
2012,09,09,08,16,15.00
2012,09,09,08,17,10.50
2012,09,09,08,18,14.50
2012,09,09,08,19,13.60
2012,09,09,08,20,13.40
2012,09,09,08,21,13.90
2012,09,09,08,22,9.40
2012,09,09,08,23,12.80
2012,09,09,08,24,14.10
2012,09,09,08,25,13.20
2012,09,09,08,26,15.40
2012,09,09,08,27,13.90
2012,09,09,08,28,11.00
2012,09,09,08,29,9.00
2012,09,09,08,30,10.90
2012,09,09,08,31,10.40
2012,09,09,08,32,8.60
2012,09,09,08,33,10.70
2012,09,09,08,34,11.50
2012,09,09,08,35,13.20
2012,09,09,08,36,15.20
2012,09,09,08,37,11.10
2012,09,09,08,38,11.90
2012,09,09,08,39,10.70
2012,09,09,08,40,13.20
2012,09,09,08,41,10.20
2012,09,09,08,42,13.30
2012,09,09,08,43,12.40
2012,09,09,08,44,11.30
2012,09,09,08,45,10.80
2012,09,09,08,46,14.50
2012,09,09,08,47,10.80
2012,09,09,08,48,11.10
2012,09,09,08,49,16.10
2012,09,09,08,50,15.40
2012,09,09,08,51,14.80
2012,09,09,08,52,11.30
2012,09,09,08,53,12.10
2012,09,09,08,54,14.60
2012,09,09,08,55,13.70
2012,09,09,08,56,12.40
2012,09,09,08,57,10.90
2012,09,09,08,58,15.00
2012,09,09,08,59,13.20
2012,09,09,09,00,16.60
2012,09,09,09,01,14.80
2012,09,09,09,02,12.90
2012,09,09,09,03,13.70
2012,09,09,09,04,15.30
2012,09,09,09,05,16.80
2012,09,09,09,06,14.30
2012,09,09,09,07,12.90
2012,09,09,09,08,11.10
2012,09,09,09,09,15.20
2012,09,09,09,10,13.30
2012,09,09,09,11,11.80
2012,09,09,09,12,11.60
2012,09,09,09,13,12.30
2012,09,09,09,14,14.00
2012,09,09,09,15,11.60
2012,09,09,09,16,11.00
2012,09,09,09,17,9.90
2012,09,09,09,18,15.00
2012,09,09,09,19,14.10
2012,09,09,09,20,12.50
2012,09,09,09,21,13.40
2012,09,09,09,22,11.00
2012,09,09,09,23,10.80
2012,09,09,09,24,11.10
2012,09,09,09,25,11.00
2012,09,09,09,26,12.70
2012,09,09,09,27,11.70
2012,09,09,09,28,12.40
2012,09,09,09,29,14.00
2012,09,09,09,30,13.10
2012,09,09,09,31,14.10
2012,09,09,09,32,11.00
2012,09,09,09,33,11.10
2012,09,09,09,34,12.20
2012,09,09,09,35,11.00
2012,09,09,09,36,11.60
2012,09,09,09,37,11.10
2012,09,09,09,38,10.90
2012,09,09,09,39,10.50
2012,09,09,09,40,13.80
2012,09,09,09,41,10.20
2012,09,09,09,42,11.10
2012,09,09,09,43,17.90
2012,09,09,09,44,14.80
2012,09,09,09,45,10.40
2012,09,09,09,46,14.80
2012,09,09,09,47,13.90
2012,09,09,09,48,16.20
2012,09,09,09,49,13.00
2012,09,09,09,50,13.20
2012,09,09,09,51,15.70
2012,09,09,09,52,15.00
2012,09,09,09,53,14.40
2012,09,09,09,54,11.00
2012,09,09,09,55,13.20
2012,09,09,09,56,14.00
2012,09,09,09,57,14.80
2012,09,09,09,58,13.20
2012,09,09,09,59,14.20
2012,09,09,10,00,12.50
2012,09,09,10,01,12.40
2012,09,09,10,02,16.50
2012,09,09,10,03,13.70
2012,09,09,10,04,17.40
2012,09,09,10,05,16.50
2012,09,09,10,06,19.20
2012,09,09,10,07,19.00
2012,09,09,10,08,19.30
2012,09,09,10,09,15.50
2012,09,09,10,10,16.80
2012,09,09,10,11,12.30
2012,09,09,10,12,11.60
2012,09,09,10,13,16.70
2012,09,09,10,14,18.50
2012,09,09,10,15,17.90
2012,09,09,10,16,16.30
2012,09,09,10,17,15.20
2012,09,09,10,18,14.10
2012,09,09,10,19,13.60
2012,09,09,10,20,15.00
2012,09,09,10,21,13.60
2012,09,09,10,22,10.60
2012,09,09,10,23,13.20
2012,09,09,10,24,21.10
2012,09,09,10,25,18.10
2012,09,09,10,26,15.70
2012,09,09,10,27,18.40
2012,09,09,10,28,15.70
2012,09,09,10,29,17.40
2012,09,09,10,30,13.90
2012,09,09,10,31,14.30
2012,09,09,10,32,16.80
2012,09,09,10,33,20.40
2012,09,09,10,34,15.60
2012,09,09,10,35,12.10
2012,09,09,10,36,14.50
2012,09,09,10,37,15.70
2012,09,09,10,38,15.30
2012,09,09,10,39,17.80
2012,09,09,10,40,13.70
2012,09,09,10,41,14.40
2012,09,09,10,42,16.60
2012,09,09,10,43,13.70
2012,09,09,10,44,15.50
2012,09,09,10,45,13.90
2012,09,09,10,46,12.90
2012,09,09,10,47,11.90
2012,09,09,10,48,15.10
2012,09,09,10,49,18.90
2012,09,09,10,50,15.80
2012,09,09,10,51,16.90
2012,09,09,10,52,11.50
2012,09,09,10,53,14.90
2012,09,09,10,54,15.50
2012,09,09,10,55,11.40
2012,09,09,10,56,17.40
2012,09,09,10,57,12.10
2012,09,09,10,58,13.00
2012,09,09,10,59,12.90
2012,09,09,11,00,14.60
2012,09,09,11,01,14.00
2012,09,09,11,02,10.10
2012,09,09,11,03,8.90
2012,09,09,11,04,10.90
2012,09,09,11,05,16.50
2012,09,09,11,06,15.70
2012,09,09,11,07,15.50
2012,09,09,11,08,13.10
2012,09,09,11,09,13.10
2012,09,09,11,10,11.40
2012,09,09,11,11,10.80
2012,09,09,11,12,15.30
2012,09,09,11,13,12.90
2012,09,09,11,14,10.20
2012,09,09,11,15,12.00
2012,09,09,11,16,11.10
2012,09,09,11,17,13.70
2012,09,09,11,18,15.60
2012,09,09,11,19,14.70
2012,09,09,11,20,13.40
2012,09,09,11,21,11.30
2012,09,09,11,22,9.90
2012,09,09,11,23,11.30
2012,09,09,11,24,10.70
2012,09,09,11,25,12.80
2012,09,09,11,26,15.20
2012,09,09,11,27,13.20
2012,09,09,11,28,15.10
2012,09,09,11,29,7.40
2012,09,09,11,30,7.30
2012,09,09,11,31,12.90
2012,09,09,11,32,10.80
2012,09,09,11,33,11.30
2012,09,09,11,34,13.10
2012,09,09,11,35,12.70
2012,09,09,11,36,10.70
2012,09,09,11,37,13.60
2012,09,09,11,38,15.50
2012,09,09,11,39,16.40
2012,09,09,11,40,12.40
2012,09,09,11,41,12.50
2012,09,09,11,42,12.70
2012,09,09,11,43,9.30
2012,09,09,11,44,9.60
2012,09,09,11,45,10.90
2012,09,09,11,46,10.80
2012,09,09,11,47,10.20
2012,09,09,11,48,8.80
2012,09,09,11,49,14.20
2012,09,09,11,50,11.90
2012,09,09,11,51,9.60
2012,09,09,11,52,9.80
2012,09,09,11,53,8.70
2012,09,09,11,54,12.10
2012,09,09,11,55,9.20
2012,09,09,11,56,12.00
2012,09,09,11,57,10.80
2012,09,09,11,58,7.70
2012,09,09,11,59,8.70
2012,09,09,12,00,10.20
2012,09,09,12,01,14.00
2012,09,09,12,02,14.50
2012,09,09,12,03,12.20
2012,09,09,12,04,10.90
2012,09,09,12,05,13.90
2012,09,09,12,06,11.20
2012,09,09,12,07,15.50
2012,09,09,12,08,10.00
2012,09,09,12,09,12.20
2012,09,09,12,10,11.60
2012,09,09,12,11,10.60
2012,09,09,12,12,14.10
2012,09,09,12,13,12.00
2012,09,09,12,14,13.30
2012,09,09,12,15,12.80
2012,09,09,12,16,11.30
2012,09,09,12,17,13.20
2012,09,09,12,18,11.00
2012,09,09,12,19,9.70
2012,09,09,12,20,14.70
2012,09,09,12,21,10.50
2012,09,09,12,22,9.20
2012,09,09,12,23,10.80
2012,09,09,12,24,6.00
2012,09,09,12,25,8.90
2012,09,09,12,26,8.30
2012,09,09,12,27,10.90
2012,09,09,12,28,7.70
2012,09,09,12,29,9.60
2012,09,09,12,30,8.30
2012,09,09,12,31,7.70
2012,09,09,12,32,12.50
2012,09,09,12,33,11.30
2012,09,09,12,34,14.30
2012,09,09,12,35,12.40
2012,09,09,12,36,16.70
2012,09,09,12,37,14.90
2012,09,09,12,38,12.70
2012,09,09,12,39,9.70
2012,09,09,12,40,10.20
2012,09,09,12,41,10.70
2012,09,09,12,42,14.30
2012,09,09,12,43,12.10
2012,09,09,12,44,13.20
2012,09,09,12,45,11.20
2012,09,09,12,46,9.30
2012,09,09,12,47,15.20
2012,09,09,12,48,14.60
2012,09,09,12,49,13.60
2012,09,09,12,50,16.90
2012,09,09,12,51,15.00
2012,09,09,12,52,10.40
2012,09,09,12,53,13.60
2012,09,09,12,54,11.70
2012,09,09,12,55,13.00
2012,09,09,12,56,12.00
2012,09,09,12,57,14.60
2012,09,09,12,58,12.70
2012,09,09,12,59,13.10
2012,09,09,13,00,9.70
2012,09,09,13,01,12.90
2012,09,09,13,02,19.40
2012,09,09,13,03,14.60
2012,09,09,13,04,13.60
2012,09,09,13,05,13.50
2012,09,09,13,06,12.40
2012,09,09,13,07,11.40
2012,09,09,13,08,12.70
2012,09,09,13,09,12.70
2012,09,09,13,10,14.10
2012,09,09,13,11,11.80
2012,09,09,13,12,13.80
2012,09,09,13,13,18.00
2012,09,09,13,14,17.60
2012,09,09,13,15,10.60
2012,09,09,13,16,13.70
2012,09,09,13,17,10.90
2012,09,09,13,18,8.60
2012,09,09,13,19,11.90
2012,09,09,13,20,11.10
2012,09,09,13,21,10.50
2012,09,09,13,22,10.30
2012,09,09,13,23,12.90
2012,09,09,13,24,13.30
2012,09,09,13,25,11.90
2012,09,09,13,26,17.40
2012,09,09,13,27,15.70
2012,09,09,13,28,19.10
2012,09,09,13,29,15.50
2012,09,09,13,30,14.40
2012,09,09,13,31,11.50
2012,09,09,13,32,9.10
2012,09,09,13,33,10.40
2012,09,09,13,34,14.60
2012,09,09,13,35,12.30
2012,09,09,13,36,15.10
2012,09,09,13,37,10.40
2012,09,09,13,38,18.10
2012,09,09,13,39,13.20
2012,09,09,13,40,15.50
2012,09,09,13,41,13.00
2012,09,09,13,42,9.10
2012,09,09,13,43,11.70
2012,09,09,13,44,13.50
2012,09,09,13,45,12.00
2012,09,09,13,46,10.40
2012,09,09,13,47,8.80
2012,09,09,13,48,11.50
2012,09,09,13,49,14.60
2012,09,09,13,50,13.10
2012,09,09,13,51,13.80
2012,09,09,13,52,15.40
2012,09,09,13,53,12.10
2012,09,09,13,54,12.70
2012,09,09,13,55,14.80
2012,09,09,13,56,15.10
2012,09,09,13,57,13.00
2012,09,09,13,58,12.90
2012,09,09,13,59,12.90
2012,09,09,14,00,15.40
2012,09,09,14,01,17.00
2012,09,09,14,02,11.80
2012,09,09,14,03,15.40
2012,09,09,14,04,15.90
2012,09,09,14,05,10.60
2012,09,09,14,06,15.40
2012,09,09,14,07,11.50
2012,09,09,14,08,9.60
2012,09,09,14,09,10.70
2012,09,09,14,10,14.20
2012,09,09,14,11,13.80
2012,09,09,14,12,12.40
2012,09,09,14,13,12.90
2012,09,09,14,14,9.30
2012,09,09,14,15,11.20
2012,09,09,14,16,10.30
2012,09,09,14,17,13.80
2012,09,09,14,18,11.90
2012,09,09,14,19,13.40
2012,09,09,14,20,13.90
2012,09,09,14,21,14.00
2012,09,09,14,22,10.00
2012,09,09,14,23,12.50
2012,09,09,14,24,13.60
2012,09,09,14,25,21.20
2012,09,09,14,26,17.60
2012,09,09,14,27,16.20
2012,09,09,14,28,15.80
2012,09,09,14,29,14.80
2012,09,09,14,30,15.10
2012,09,09,14,31,14.20
2012,09,09,14,32,12.60
2012,09,09,14,33,14.90
2012,09,09,14,34,17.30
2012,09,09,14,35,18.10
2012,09,09,14,36,16.30
2012,09,09,14,37,15.40
2012,09,09,14,38,16.70
2012,09,09,14,39,15.00
2012,09,09,14,40,11.60
2012,09,09,14,41,17.30
2012,09,09,14,42,13.00
2012,09,09,14,43,10.60
2012,09,09,14,44,12.90
2012,09,09,14,45,14.40
2012,09,09,14,46,14.00
2012,09,09,14,47,16.90
2012,09,09,14,48,15.70
2012,09,09,14,49,15.60
2012,09,09,14,50,15.70
2012,09,09,14,51,13.50
2012,09,09,14,52,15.50
2012,09,09,14,53,15.40
2012,09,09,14,54,15.70
2012,09,09,14,55,17.80
2012,09,09,14,56,11.90
2012,09,09,14,57,12.30
2012,09,09,14,58,10.80
2012,09,09,14,59,14.60
2012,09,09,15,00,17.60
2012,09,09,15,01,14.40
2012,09,09,15,02,16.10
2012,09,09,15,03,14.00
2012,09,09,15,04,15.00
2012,09,09,15,05,15.10
2012,09,09,15,06,13.70
2012,09,09,15,07,12.10
2012,09,09,15,08,12.30
2012,09,09,15,09,13.60
2012,09,09,15,10,15.60
2012,09,09,15,11,16.20
2012,09,09,15,12,11.70
2012,09,09,15,13,14.50
2012,09,09,15,14,13.90
2012,09,09,15,15,16.90
2012,09,09,15,16,14.60
2012,09,09,15,17,16.30
2012,09,09,15,18,17.90
2012,09,09,15,19,14.30
2012,09,09,15,20,13.10
2012,09,09,15,21,13.70
2012,09,09,15,22,15.80
2012,09,09,15,23,15.80
2012,09,09,15,24,15.50
2012,09,09,15,25,21.20
2012,09,09,15,26,13.40
2012,09,09,15,27,17.30
2012,09,09,15,28,15.60
2012,09,09,15,29,14.20
2012,09,09,15,30,10.60
2012,09,09,15,31,10.80
2012,09,09,15,32,14.40
2012,09,09,15,33,12.00
2012,09,09,15,34,19.10
2012,09,09,15,35,18.00
2012,09,09,15,36,18.00
2012,09,09,15,37,20.10
2012,09,09,15,38,19.00
2012,09,09,15,39,17.10
2012,09,09,15,40,14.60
2012,09,09,15,41,19.10
2012,09,09,15,42,18.80
2012,09,09,15,43,13.70
2012,09,09,15,44,12.30
2012,09,09,15,45,14.90
2012,09,09,15,46,14.60
2012,09,09,15,47,21.80
2012,09,09,15,48,20.40
2012,09,09,15,49,15.40
2012,09,09,15,50,20.30
2012,09,09,15,51,20.20
2012,09,09,15,52,23.00
2012,09,09,15,53,18.00
2012,09,09,15,54,13.80
2012,09,09,15,55,14.30
2012,09,09,15,56,20.60
2012,09,09,15,57,16.50
2012,09,09,15,58,14.00
2012,09,09,15,59,15.60
2012,09,09,16,00,17.60
2012,09,09,16,01,18.20
2012,09,09,16,02,16.40
2012,09,09,16,03,18.20
2012,09,09,16,04,15.00
2012,09,09,16,05,20.00
2012,09,09,16,06,13.70
2012,09,09,16,07,17.00
2012,09,09,16,08,21.40
2012,09,09,16,09,22.00
2012,09,09,16,10,16.60
2012,09,09,16,11,15.60
2012,09,09,16,12,13.70
2012,09,09,16,13,15.00
2012,09,09,16,14,13.20
2012,09,09,16,15,16.00
2012,09,09,16,16,19.00
2012,09,09,16,17,15.10
2012,09,09,16,18,13.70
2012,09,09,16,19,9.00
2012,09,09,16,20,11.30
2012,09,09,16,21,14.40
2012,09,09,16,22,14.80
2012,09,09,16,23,12.40
2012,09,09,16,24,12.50
2012,09,09,16,25,12.50
2012,09,09,16,26,10.50
2012,09,09,16,27,13.70
2012,09,09,16,28,14.20
2012,09,09,16,29,11.90
2012,09,09,16,30,12.10
2012,09,09,16,31,12.00
2012,09,09,16,32,16.50
2012,09,09,16,33,13.00
2012,09,09,16,34,12.40
2012,09,09,16,35,13.80
2012,09,09,16,36,15.40
2012,09,09,16,37,17.40
2012,09,09,16,38,14.00
2012,09,09,16,39,16.90
2012,09,09,16,40,14.80
2012,09,09,16,41,18.20
2012,09,09,16,42,17.60
2012,09,09,16,43,14.80
2012,09,09,16,44,20.50
2012,09,09,16,45,15.90
2012,09,09,16,46,17.60
2012,09,09,16,47,17.60
2012,09,09,16,48,13.40
2012,09,09,16,49,17.20
2012,09,09,16,50,13.20
2012,09,09,16,51,16.90
2012,09,09,16,52,14.50
2012,09,09,16,53,15.90
2012,09,09,16,54,14.20
2012,09,09,16,55,14.30
2012,09,09,16,56,14.00
2012,09,09,16,57,10.90
2012,09,09,16,58,12.40
2012,09,09,16,59,10.60
2012,09,09,17,00,9.50
2012,09,09,17,01,12.70
2012,09,09,17,02,17.30
2012,09,09,17,03,17.00
2012,09,09,17,04,11.70
2012,09,09,17,05,14.40
2012,09,09,17,06,14.30
2012,09,09,17,07,15.50
2012,09,09,17,08,10.90
2012,09,09,17,09,15.20
2012,09,09,17,10,16.90
2012,09,09,17,11,15.50
2012,09,09,17,12,14.60
2012,09,09,17,13,12.20
2012,09,09,17,14,12.30
2012,09,09,17,15,8.10
2012,09,09,17,16,13.90
2012,09,09,17,17,12.50
2012,09,09,17,18,9.60
2012,09,09,17,19,12.90
2012,09,09,17,20,12.20
2012,09,09,17,21,9.60
2012,09,09,17,22,9.60
2012,09,09,17,23,18.00
2012,09,09,17,24,17.10
2012,09,09,17,25,15.30
2012,09,09,17,26,12.50
2012,09,09,17,27,12.70
2012,09,09,17,28,12.10
2012,09,09,17,29,10.90
2012,09,09,17,30,8.10
2012,09,09,17,31,10.30
2012,09,09,17,32,10.70
2012,09,09,17,33,11.90
2012,09,09,17,34,13.50
2012,09,09,17,35,11.00
2012,09,09,17,36,13.60
2012,09,09,17,37,15.00
2012,09,09,17,38,16.30
2012,09,09,17,39,17.50